| time (UTC) | temp F | wind direction | speed MPH | gust MPH | rain 1hr in | rain 24hr in | rain mn in | humidity % | barometer mb |
| 20260507050026 | 53 | 199 | 3.0 | 11.0 | 0.00 | 0.11 | 0.00 | 97 | 1004.3 |
| 20260507044519 | 53 | 199 | 4.0 | 11.0 | 0.00 | 0.11 | 0.00 | 97 | 1004.2 |
| 20260507043018 | 53 | 219 | 4.0 | 13.0 | 0.00 | 0.11 | 0.00 | 97 | 1004.3 |
| 20260507041515 | 53 | 211 | 5.0 | 14.0 | 0.00 | 0.11 | 0.00 | 97 | 1004.5 |
| 20260507040013 | 54 | 213 | 4.0 | 14.0 | 0.00 | 0.11 | 0.11 | 97 | 1004.6 |
| 20260507034508 | 54 | 225 | 6.0 | 14.0 | 0.00 | 0.11 | 0.11 | 97 | 1004.7 |
| 20260507033016 | 55 | 205 | 4.0 | 10.0 | 0.00 | 0.11 | 0.11 | 97 | 1004.6 |
| 20260507031507 | 55 | 205 | 4.0 | 14.0 | 0.00 | 0.11 | 0.11 | 97 | 1004.5 |
| 20260507030007 | 55 | 188 | 6.0 | 11.0 | 0.00 | 0.11 | 0.11 | 97 | 1004.2 |
| 20260507024503 | 55 | 185 | 5.0 | 14.0 | 0.00 | 0.11 | 0.11 | 97 | 1004.5 |
| 20260507023107 | 55 | 195 | 6.0 | 15.0 | 0.00 | 0.11 | 0.11 | 97 | 1004.9 |
| 20260507021602 | 56 | 186 | 5.0 | 12.0 | 0.00 | 0.11 | 0.11 | 96 | 1004.9 |
| 20260507020100 | 56 | 205 | 6.0 | 10.0 | 0.00 | 0.11 | 0.11 | 96 | 1005.1 |
| 20260507014603 | 57 | 194 | 7.0 | 21.0 | 0.00 | 0.11 | 0.11 | 96 | 1005.1 |
| 20260507013054 | 57 | 360 | 6.0 | 17.0 | 0.01 | 0.11 | 0.11 | 97 | 1005.3 |
| 20260507011553 | 57 | 174 | 5.0 | 15.0 | 0.01 | 0.11 | 0.11 | 97 | 1005.2 |
| 20260507010057 | 58 | 212 | 4.0 | 15.0 | 0.02 | 0.11 | 0.11 | 97 | 1005.2 |
| 20260507004552 | 57 | 229 | 5.0 | 9.0 | 0.03 | 0.11 | 0.11 | 97 | 1005.2 |
| 20260507003052 | 57 | 169 | 6.0 | 11.0 | 0.05 | 0.10 | 0.10 | 97 | 1005.1 |
| 20260507001554 | 57 | 160 | 4.0 | 9.0 | 0.07 | 0.10 | 0.10 | 97 | 1005.1 |
| 20260507000049 | 56 | 360 | 4.0 | 10.0 | 0.08 | 0.09 | 0.09 | 96 | 1005.0 |
| 20260506234549 | 56 | 360 | 4.0 | 10.0 | 0.07 | 0.07 | 0.07 | 95 | 1004.9 |
| 20260506233055 | 57 | 188 | 4.0 | 19.0 | 0.05 | 0.05 | 0.05 | 95 | 1005.0 |
| 20260506231543 | 57 | 194 | 5.0 | 13.0 | 0.03 | 0.03 | 0.03 | 94 | 1005.4 |
| 20260506230040 | 58 | 175 | 4.0 | 11.0 | 0.01 | 0.01 | 0.01 | 93 | 1005.7 |
| 20260506224539 | 58 | 213 | 5.0 | 18.0 | 0.00 | 0.00 | 0.00 | 91 | 1005.7 |
| 20260506223038 | 59 | 360 | 6.0 | 14.0 | 0.00 | 0.00 | 0.00 | 88 | 1005.7 |
| 20260506221538 | 61 | 187 | 5.0 | 16.0 | 0.00 | 0.00 | 0.00 | 84 | 1005.7 |
| 20260506220038 | 61 | 175 | 5.0 | 12.0 | 0.00 | 0.00 | 0.00 | 82 | 1005.4 |
| 20260506214536 | 61 | 360 | 4.0 | 15.0 | 0.00 | 0.00 | 0.00 | 82 | 1005.7 |
| 20260506213035 | 61 | 180 | 4.0 | 20.0 | 0.00 | 0.00 | 0.00 | 82 | 1006.0 |
| 20260506211535 | 61 | 188 | 8.0 | 18.0 | 0.00 | 0.00 | 0.00 | 81 | 1006.1 |
| 20260506210033 | 62 | 184 | 5.0 | 11.0 | 0.00 | 0.00 | 0.00 | 80 | 1006.0 |
| 20260506204531 | 62 | 360 | 5.0 | 13.0 | 0.00 | 0.00 | 0.00 | 79 | 1006.1 |
| 20260506203030 | 62 | 171 | 6.0 | 16.0 | 0.00 | 0.00 | 0.00 | 79 | 1006.4 |
| 20260506201531 | 63 | 175 | 4.0 | 15.0 | 0.00 | 0.00 | 0.00 | 78 | 1006.4 |
| 20260506200029 | 62 | 159 | 5.0 | 21.0 | 0.00 | 0.00 | 0.00 | 78 | 1006.6 |
| 20260506194527 | 62 | 190 | 6.0 | 12.0 | 0.00 | 0.00 | 0.00 | 78 | 1006.9 |
| 20260506193028 | 62 | 174 | 5.0 | 18.0 | 0.00 | 0.00 | 0.00 | 78 | 1007.0 |
| 20260506191526 | 63 | 172 | 4.0 | 21.0 | 0.00 | 0.00 | 0.00 | 77 | 1007.1 |
| 20260506190025 | 64 | 203 | 6.0 | 17.0 | 0.00 | 0.00 | 0.00 | 76 | 1007.1 |
| 20260506184523 | 64 | 193 | 7.0 | 19.0 | 0.00 | 0.00 | 0.00 | 74 | 1007.3 |
| 20260506183022 | 64 | 360 | 7.0 | 22.0 | 0.00 | 0.00 | 0.00 | 75 | 1007.5 |
| 20260506181521 | 65 | 203 | 6.0 | 28.0 | 0.00 | 0.00 | 0.00 | 74 | 1007.8 |
| 20260506180019 | 67 | 163 | 7.0 | 14.0 | 0.00 | 0.00 | 0.00 | 70 | 1008.3 |
| 20260506174517 | 69 | 188 | 6.0 | 12.0 | 0.00 | 0.00 | 0.00 | 70 | 1008.2 |
| 20260506173016 | 67 | 175 | 8.0 | 22.0 | 0.00 | 0.00 | 0.00 | 71 | 1008.1 |
| 20260506171513 | 66 | 200 | 6.0 | 18.0 | 0.00 | 0.00 | 0.00 | 73 | 1008.4 |
| 20260506170011 | 66 | 360 | 6.0 | 18.0 | 0.00 | 0.00 | 0.00 | 73 | 1008.5 |
| 20260506164510 | 66 | 211 | 5.0 | 23.0 | 0.00 | 0.00 | 0.00 | 74 | 1008.8 |
| 20260506163021 | 67 | 190 | 7.0 | 18.0 | 0.00 | 0.00 | 0.00 | 72 | 1009.0 |
| 20260506161508 | 67 | 140 | 7.0 | 26.0 | 0.00 | 0.00 | 0.00 | 72 | 1009.0 |
| 20260506160015 | 66 | 186 | 8.0 | 21.0 | 0.00 | 0.00 | 0.00 | 73 | 1009.2 |
| 20260506154504 | 67 | 155 | 9.0 | 23.0 | 0.00 | 0.00 | 0.00 | 71 | 1009.7 |
| 20260506153003 | 67 | 170 | 9.0 | 20.0 | 0.00 | 0.00 | 0.00 | 72 | 1009.6 |
| 20260506151503 | 67 | 189 | 6.0 | 19.0 | 0.00 | 0.00 | 0.00 | 71 | 1009.7 |
| 20260506150002 | 65 | 243 | 8.0 | 19.0 | 0.00 | 0.00 | 0.00 | 74 | 1009.7 |
| 20260506144600 | 66 | 176 | 7.0 | 17.0 | 0.00 | 0.00 | 0.00 | 74 | 1009.8 |
| 20260506143108 | 66 | 157 | 4.0 | 14.0 | 0.00 | 0.00 | 0.00 | 73 | 1009.4 |
| 20260506141559 | 67 | 209 | 6.0 | 22.0 | 0.00 | 0.00 | 0.00 | 73 | 1009.7 |
| 20260506140100 | 68 | 360 | 7.0 | 18.0 | 0.00 | 0.00 | 0.00 | 71 | 1009.8 |
| 20260506134555 | 66 | 213 | 10.0 | 29.0 | 0.00 | 0.00 | 0.00 | 73 | 1009.7 |
| 20260506133053 | 66 | 200 | 7.0 | 27.0 | 0.00 | 0.00 | 0.00 | 75 | 1009.6 |
| 20260506131551 | 66 | 199 | 7.0 | 18.0 | 0.00 | 0.00 | 0.00 | 75 | 1009.7 |
| 20260506130049 | 65 | 360 | 6.0 | 12.0 | 0.00 | 0.00 | 0.00 | 77 | 1009.7 |
| 20260506124546 | 64 | 170 | 6.0 | 12.0 | 0.00 | 0.00 | 0.00 | 78 | 1009.9 |
| 20260506123043 | 63 | 220 | 5.0 | 16.0 | 0.00 | 0.00 | 0.00 | 80 | 1009.9 |
| 20260506121543 | 62 | 178 | 5.0 | 15.0 | 0.00 | 0.00 | 0.00 | 81 | 1010.1 |
| 20260506120037 | 61 | 194 | 4.0 | 11.0 | 0.00 | 0.00 | 0.00 | 83 | 1010.2 |
| 20260506114543 | 61 | 229 | 5.0 | 20.0 | 0.00 | 0.00 | 0.00 | 84 | 1010.4 |
| 20260506113036 | 61 | 192 | 7.0 | 19.0 | 0.00 | 0.00 | 0.00 | 83 | 1010.3 |
| 20260506111538 | 61 | 190 | 7.0 | 18.0 | 0.00 | 0.00 | 0.00 | 84 | 1010.2 |
| 20260506110033 | 60 | 207 | 6.0 | 15.0 | 0.00 | 0.00 | 0.00 | 86 | 1010.4 |
| 20260506104528 | 59 | 224 | 7.0 | 11.0 | 0.00 | 0.00 | 0.00 | 87 | 1010.3 |
| 20260506103027 | 58 | 186 | 5.0 | 12.0 | 0.00 | 0.00 | 0.00 | 88 | 1010.2 |
| 20260506101526 | 58 | 155 | 5.0 | 10.0 | 0.00 | 0.00 | 0.00 | 88 | 1010.2 |
| 20260506100021 | 58 | 225 | 5.0 | 13.0 | 0.00 | 0.00 | 0.00 | 89 | 1010.2 |
| 20260506094519 | 57 | 174 | 5.0 | 16.0 | 0.00 | 0.00 | 0.00 | 90 | 1010.2 |
| 20260506093019 | 57 | 191 | 5.0 | 17.0 | 0.00 | 0.00 | 0.00 | 90 | 1010.4 |
| 20260506091522 | 57 | 211 | 4.0 | 17.0 | 0.00 | 0.00 | 0.00 | 90 | 1010.3 |
| 20260506090022 | 57 | 231 | 5.0 | 14.0 | 0.00 | 0.00 | 0.00 | 91 | 1010.3 |
| 20260506084517 | 57 | 188 | 5.0 | 17.0 | 0.00 | 0.00 | 0.00 | 91 | 1010.4 |
| 20260506083015 | 57 | 205 | 5.0 | 25.0 | 0.00 | 0.00 | 0.00 | 91 | 1010.4 |
| 20260506081515 | 57 | 207 | 7.0 | 16.0 | 0.00 | 0.00 | 0.00 | 91 | 1010.3 |
| 20260506073011 | 57 | 210 | 6.0 | 15.0 | 0.00 | 0.00 | 0.00 | 91 | 1010.4 |
| 20260506071509 | 57 | 360 | 6.0 | 18.0 | 0.00 | 0.00 | 0.00 | 91 | 1010.4 |
| 20260506061513 | 57 | 199 | 5.0 | 12.0 | 0.00 | 0.00 | 0.00 | 89 | 1010.4 |